User: anonymous   Login
Location: ????????
(42.0488°N, 44.0407°E)
Time: 15:53:55
(UTC+00:00)
Language:

Cosmos 1743 Rocket - Orbit

View from above orbital plane
View from above orbital plane
View from above satellite
View from above satellite

Ground track
Ground track

The orbit data is extracted from the following two-line orbital elements,

1 16720U 86034B   21163.90285444  .00000056  00000-0  38597-5 0  9994
2 16720  82.5531 323.2372 0019557 339.5322 133.5952 14.83437061874125
Epoch (UTC): 12 June 2021 21:40:06
Eccentricity: 0.0019557
inclination: 82.5531°
perigee height: 605 km
apogee height: 632 km
right ascension of ascending node: 323.2372°
argument of perigee: 339.5322°
revolutions per day: 14.83437061
mean anomaly at epoch: 133.5952°
orbit number at epoch: 87412

The dashed part of the orbit path shows where the satellite is in the earth's shadow,  

DLR